Regional Weather Roundup
Issued by NWS

Home | Current Version | Previous Version | Graphics & Text | Print | Product List | Glossary On
Versions: 1 2 3 4 5 6 7 8 9 10 11 12 13 14 15 16 17 18 19 20 21 22 23 24 25 26 27 28 29 30 31 32 33 34 35 36 37 38 39 40 41 42 43 44 45 46 47 48 49 50
000
ASUS43 KDTX 191401
RWRMI
MICHIGAN HOURLY REGIONAL WEATHER ROUNDUP
NATIONAL WEATHER SERVICE DETROIT/PONTIAC MI
1000 AM EDT SAT AUG 19 2017

NOTE: "FAIR" INDICATES FEW OR NO CLOUDS BELOW 12,000 FEET WITH NO
SIGNIFICANT WEATHER AND/OR OBSTRUCTION TO VISIBILITY.

MIZ047>049-052>055-059>063-066>070-074>076-081>083-191500-
SOUTHEAST LOWER MICHIGAN

CITY           SKY/WX    TMP DP  RH WIND       PRES   REMARKS
ADRIAN         SUNNY     70  64  81 NW6       29.92S
ALMA           SUNNY     68  59  73 W8        29.93R
ANN ARBOR      MOSUNNY   72  64  76 W8        29.90F
BAD AXE        CLOUDY    64  60  87 W9        29.89S
CARO           LGT RAIN  64  58  83 W5        29.90S
DETROIT CITY   PTSUNNY   71  61  70 W8        29.90R
DETROIT        PTSUNNY   70  63  78 W8        29.91R
FLINT          SUNNY     67  59  75 NW12      29.91S
GROSSE ILE     CLOUDY    70  63  77 W7        29.90S
HILLSDALE      CLOUDY    68  63  83 W8        29.93R
HOWELL         MOSUNNY   68  60  75 NW7       29.92S

CITY           SKY/WX    TMP DP  RH WIND       PRES   REMARKS
JACKSON        MOSUNNY   69  62  78 W10       29.93R
LAMBERTVILLE   PTSUNNY   67  64  90 W5        29.91S
LANSING        MOSUNNY   69  57  65 NW8       29.93S
LAPEER         FAIR      67  57  70 NW8       29.91S
MASON          MOSUNNY   70  62  76 N8        29.93R
MONROE         MOSUNNY   71  65  82 W6        29.90S
MT. CLEMENS    PTSUNNY   70  63  77 W10       29.88R
PONTIAC        PTSUNNY   69  60  73 NW13      29.90S
PORT HOPE        N/A     66  58  75 W9        29.85S
PORT HURON     PTSUNNY   68  61  77 W8        29.90R
TRI CITIES     PTSUNNY   66  62  87 W8        29.91S
MIDLAND        FAIR      67  60  77 W7        29.90S
TROY           MOSUNNY   71  61  71 W10       29.92R
SAGINAW HB     CLOUDY    64  59  82 W6        29.90S
$$
MIZ043>046-050>051-056>058-064>065-071>073-077>080-191500-
SOUTHWEST LOWER MICHIGAN

CITY           SKY/WX    TMP DP  RH WIND       PRES   REMARKS
BATTLE CREEK   SUNNY     71  62  73 NW8       29.94S
BENTON HARBOR  MOSUNNY   73  62  68 NW6       29.95R
BIG RAPIDS     SUNNY     67  58  74 W14G20    29.93R
COLDWATER      PTSUNNY   69  65  86 NW7       29.94R
FREMONT        FAIR      67  65  94 W7        29.94R
HOLLAND        SUNNY     70  58  65 CALM      29.95R
GRAND RAPIDS   MOSUNNY   71  57  61 NW7       29.94R
IONIA          FAIR      69  57  65 W6        29.93R
KALAMAZOO      SUNNY     72  59  63 N13       29.94S
LUDINGTON      SUNNY     69  63  80 W3        29.91S
MARSHALL       MOSUNNY   70  62  74 NW5       29.93S
MOUNT PLEASANT SUNNY     70  59  69 W8        29.91R
MUSKEGON       MOSUNNY   72  59  63 NW8       29.94R
SOUTH HAVEN    MOSUNNY   73  57  59 NE5       29.94S
$$
MIZ016>042-191500-
NORTHERN LOWER MICHIGAN

CITY           SKY/WX    TMP DP  RH WIND       PRES   REMARKS
ALPENA         CLOUDY    67  59  75 NW10G21   29.86R
BEAVER ISLAND  MOSUNNY   68  60  76 SW8       29.87S
BELLAIRE       CLOUDY    67  59  76 CALM      29.90R
CADILLAC       MOSUNNY   68  59  73 W9        29.92S
CHARLEVOIX     CLOUDY    68  61  79 W8        29.91S
FRANKFORT      SUNNY     70  66  86 SW5       29.90S
GAYLORD        MOSUNNY   63  56  78 W9        29.90R
GRAYLING       PTSUNNY   64  57  80 W7        29.91R
HARBOR SPRINGS CLOUDY    65  60  81 W5        29.88S
HOUGHTON LAKE  MOSUNNY   64  58  80 NW10      29.92R
MANISTEE       SUNNY     70  63  78 W10       29.90S
OSCODA         CLOUDY    69  58  69 NW10G20   29.85S
PELLSTON       PTSUNNY   67  58  72 W6        29.88R
ROGERS CITY    PTSUNNY   66  58  77 NW8       29.87R
TRAVERSE CITY  MOSUNNY   69  60  73 W8        29.89R
$$
MIZ007>008-015-191500-
EASTERN UPPER MICHIGAN

CITY           SKY/WX    TMP DP  RH WIND       PRES   REMARKS
KINROSS        MOSUNNY   63  58  83 NW7       29.85S
MACKINAC ISLAN SUNNY     63  60  88 W5        29.86S
NEWBERRY       PTSUNNY   61  60  97 SW5       29.86S
S. S. MARIE    SUNNY     65  59  81 NW3       29.84R
MUNISING         N/A     67  62  84 S6        29.83F
$$
MIZ004>006-011>014-085-191500-
CENTRAL UPPER MICHIGAN

CITY           SKY/WX    TMP DP  RH WIND       PRES   REMARKS
MANISTIQUE     SUNNY     66  58  75 CALM      29.85F
ESCANABA       SUNNY     65  59  81 W8        29.86F
MENOMINEE      SUNNY     66  60  81 W8        29.89F
SAWYER-GWINN   SUNNY     64  59  82 W9        29.86F
$$
MIZ001>003-009>011-084-191500-
WESTERN UPPER MICHIGAN

CITY           SKY/WX    TMP DP  RH WIND       PRES   REMARKS
IRON MOUNTAIN  SUNNY     66  58  75 NW9       29.88S
HOUGHTON         N/A    N/A N/A N/A MISG      29.84S
COPPER HARBOR    N/A     68  58  70 N9        29.81S
IRONWOOD       SUNNY     66  60  81 W9        29.90S
$$

ABBREVIATIONS USED IN REMARKS
   TC - TEMPERATURE IN CELSIUS
  WCI - WIND CHILL INDEX
   HX - HEAT INDEX
  VSB - VISIBILITY





USA.gov is the U.S. government's official web portal to all federal, state and local government web resources and services.